TimeCST,TemperatureF,Dew PointF,Humidity,Sea Level PressureIn,VisibilityMPH,Wind Direction,Wind SpeedMPH,Gust SpeedMPH,PrecipitationIn,Events,Conditions,WindDirDegrees,DateUTC
12:15 AM,36.7,29.1,74,29.92,10.0,WSW,8.1,-,N/A,,Clear,250,2013-12-16 06:15:00
12:35 AM,35.6,28.8,76,29.92,10.0,WSW,12.7,-,N/A,,Clear,250,2013-12-16 06:35:00
12:55 AM,34.3,28.2,78,29.92,10.0,WSW,11.5,-,N/A,,Clear,250,2013-12-16 06:55:00
1:15 AM,34.0,28.0,79,29.91,10.0,WSW,10.4,-,N/A,,Clear,250,2013-12-16 07:15:00
1:35 AM,34.2,27.9,78,29.91,10.0,WSW,11.5,-,N/A,,Clear,250,2013-12-16 07:35:00
1:55 AM,34.2,27.5,77,29.91,10.0,WSW,10.4,-,N/A,,Clear,250,2013-12-16 07:55:00
2:39 AM,33.8,26.6,75,29.92,10.0,West,10.4,-,N/A,,Clear,260,2013-12-16 08:39:00
2:56 AM,33.8,26.6,75,29.94,10.0,WSW,10.4,-,N/A,,Clear,250,2013-12-16 08:56:00
3:36 AM,32.0,26.6,80,29.93,10.0,WSW,11.5,-,N/A,,Clear,250,2013-12-16 09:36:00
4:00 AM,33.8,26.6,75,29.92,10.0,West,9.2,-,N/A,,Clear,260,2013-12-16 10:00:00
4:15 AM,33.3,26.2,75,29.92,10.0,West,9.2,-,N/A,,Clear,260,2013-12-16 10:15:00
4:35 AM,33.3,26.2,75,29.92,10.0,West,8.1,-,N/A,,Clear,260,2013-12-16 10:35:00
4:55 AM,33.1,26.2,76,29.93,10.0,West,5.8,-,N/A,,Clear,270,2013-12-16 10:55:00
5:15 AM,32.9,25.9,75,29.93,10.0,West,6.9,-,N/A,,Clear,270,2013-12-16 11:15:00
5:35 AM,32.4,25.7,76,29.94,10.0,West,4.6,-,N/A,,Clear,270,2013-12-16 11:35:00
5:55 AM,32.0,25.7,78,29.94,10.0,West,5.8,-,N/A,,Clear,270,2013-12-16 11:55:00
6:15 AM,33.6,26.1,74,29.94,10.0,WSW,12.7,-,N/A,,Clear,250,2013-12-16 12:15:00
6:35 AM,33.6,26.2,74,29.96,10.0,West,10.4,-,N/A,,Scattered Clouds,280,2013-12-16 12:35:00
6:55 AM,34.3,26.4,73,29.96,10.0,West,9.2,-,N/A,,Scattered Clouds,270,2013-12-16 12:55:00
7:15 AM,34.2,26.2,73,29.96,10.0,West,9.2,-,N/A,,Mostly Cloudy,270,2013-12-16 13:15:00
7:35 AM,33.6,26.1,74,29.96,10.0,West,8.1,-,N/A,,Scattered Clouds,280,2013-12-16 13:35:00
7:55 AM,34.9,26.4,71,29.97,10.0,West,9.2,-,N/A,,Scattered Clouds,280,2013-12-16 13:55:00
8:15 AM,35.8,26.6,69,29.97,10.0,West,10.4,-,N/A,,Scattered Clouds,270,2013-12-16 14:15:00
8:35 AM,35.8,26.6,69,29.98,10.0,West,8.1,-,N/A,,Clear,280,2013-12-16 14:35:00
8:55 AM,37.0,27.0,67,29.99,10.0,West,10.4,-,N/A,,Clear,280,2013-12-16 14:55:00
9:15 AM,37.8,27.5,67,30.01,10.0,WNW,8.1,-,N/A,,Clear,300,2013-12-16 15:15:00
9:35 AM,40.8,28.9,63,30.02,10.0,NNW,13.8,-,N/A,,Clear,330,2013-12-16 15:35:00
9:55 AM,41.9,29.8,62,30.02,10.0,NW,12.7,-,N/A,,Clear,320,2013-12-16 15:55:00
10:15 AM,41.9,30.2,63,30.04,10.0,NW,9.2,-,N/A,,Clear,320,2013-12-16 16:15:00
10:35 AM,42.1,30.6,64,30.05,10.0,NW,8.1,-,N/A,,Clear,320,2013-12-16 16:35:00
10:55 AM,42.3,31.1,65,30.06,10.0,NW,13.8,-,N/A,,Clear,320,2013-12-16 16:55:00
11:15 AM,42.3,31.6,66,30.04,10.0,NW,8.1,-,N/A,,Scattered Clouds,320,2013-12-16 17:15:00
11:35 AM,42.4,31.8,66,30.04,10.0,NW,6.9,-,N/A,,Scattered Clouds,310,2013-12-16 17:35:00
11:55 AM,43.2,32.0,65,30.03,10.0,WNW,10.4,-,N/A,,Mostly Cloudy,290,2013-12-16 17:55:00
12:15 PM,43.7,32.0,63,30.03,10.0,NW,6.9,-,N/A,,Overcast,310,2013-12-16 18:15:00
12:35 PM,42.4,31.8,66,30.02,10.0,NW,8.1,-,N/A,,Overcast,310,2013-12-16 18:35:00
12:55 PM,42.3,31.8,67,30.03,10.0,NW,10.4,-,N/A,,Overcast,310,2013-12-16 18:55:00
1:15 PM,42.1,32.0,67,30.03,10.0,NW,11.5,-,N/A,,Overcast,310,2013-12-16 19:15:00
1:35 PM,42.3,32.0,67,30.03,10.0,NW,10.4,-,N/A,,Mostly Cloudy,310,2013-12-16 19:35:00
1:55 PM,41.9,32.0,68,30.04,10.0,NW,9.2,-,N/A,,Mostly Cloudy,310,2013-12-16 19:55:00
2:15 PM,41.5,32.0,69,30.04,10.0,NW,8.1,-,N/A,,Mostly Cloudy,310,2013-12-16 20:15:00
2:35 PM,41.9,32.0,68,30.04,10.0,NNW,6.9,-,N/A,,Overcast,330,2013-12-16 20:35:00
2:55 PM,41.5,32.2,69,30.04,10.0,NNW,4.6,-,N/A,,Mostly Cloudy,330,2013-12-16 20:55:00
3:15 PM,41.2,31.1,67,30.04,10.0,North,5.8,-,N/A,,Mostly Cloudy,360,2013-12-16 21:15:00
3:35 PM,41.2,30.9,67,30.05,10.0,North,3.5,-,N/A,,Mostly Cloudy,360,2013-12-16 21:35:00
3:55 PM,40.1,31.6,72,30.05,10.0,Calm,Calm,-,N/A,,Overcast,0,2013-12-16 21:55:00
4:15 PM,39.0,31.5,74,30.05,10.0,Calm,Calm,-,N/A,,Overcast,0,2013-12-16 22:15:00
4:35 PM,38.7,31.1,74,30.06,10.0,Calm,Calm,-,N/A,,Overcast,0,2013-12-16 22:35:00
4:55 PM,37.6,31.1,77,30.07,10.0,NNE,3.5,-,N/A,,Overcast,30,2013-12-16 22:55:00
5:15 PM,37.0,30.7,78,30.08,10.0,Calm,Calm,-,N/A,,Overcast,0,2013-12-16 23:15:00
5:35 PM,36.1,30.7,81,30.09,10.0,North,4.6,-,N/A,,Overcast,350,2013-12-16 23:35:00
5:55 PM,34.9,30.6,84,30.09,10.0,Calm,Calm,-,N/A,,Mostly Cloudy,0,2013-12-16 23:55:00
6:15 PM,34.2,30.0,85,30.09,10.0,NE,5.8,-,N/A,,Scattered Clouds,40,2013-12-17 00:15:00
6:35 PM,32.9,29.3,87,30.09,10.0,ENE,3.5,-,N/A,,Clear,60,2013-12-17 00:35:00
6:55 PM,32.4,29.8,90,30.10,10.0,Calm,Calm,-,N/A,,Clear,0,2013-12-17 00:55:00
7:15 PM,31.8,29.1,90,30.10,10.0,Calm,Calm,-,N/A,,Clear,0,2013-12-17 01:15:00
7:35 PM,30.6,28.4,92,30.10,10.0,Calm,Calm,-,N/A,,Clear,0,2013-12-17 01:35:00
7:55 PM,29.7,27.9,93,30.09,10.0,SSW,3.5,-,N/A,,Clear,210,2013-12-17 01:55:00
8:15 PM,29.5,27.3,92,30.10,10.0,SW,3.5,-,N/A,,Clear,220,2013-12-17 02:15:00
8:35 PM,30.0,28.2,93,30.11,10.0,WSW,4.6,-,N/A,,Clear,240,2013-12-17 02:35:00
8:55 PM,28.8,27.0,93,30.10,10.0,WSW,3.5,-,N/A,,Scattered Clouds,250,2013-12-17 02:55:00
9:15 PM,28.2,26.6,94,30.11,10.0,WSW,4.6,-,N/A,,Clear,250,2013-12-17 03:15:00
9:35 PM,28.6,27.1,94,30.12,10.0,WSW,5.8,-,N/A,,Clear,250,2013-12-17 03:35:00
9:55 PM,27.1,25.7,94,30.12,10.0,West,4.6,-,N/A,,Clear,260,2013-12-17 03:55:00
10:15 PM,27.5,26.1,94,30.13,10.0,WSW,5.8,-,N/A,,Clear,250,2013-12-17 04:15:00
10:35 PM,27.5,25.7,93,30.14,10.0,WSW,6.9,-,N/A,,Clear,240,2013-12-17 04:35:00
10:55 PM,27.3,25.7,94,30.13,10.0,SW,5.8,-,N/A,,Clear,230,2013-12-17 04:55:00
11:15 PM,27.1,25.5,94,30.13,10.0,SW,8.1,-,N/A,,Scattered Clouds,230,2013-12-17 05:15:00
11:55 PM,27.0,25.5,94,30.14,10.0,West,5.8,-,N/A,,Clear,260,2013-12-17 05:55:00